"Pseudo-MPEC" for P11DBXX

Created 2023 Mar 21 1:22:10 UT using Find_Orb

Click here for an explanation of pseudo-MPECs

 
 Astrometry: 
     P11DBXX* C2023 03 18o3u-No48AQ@.Dm@w*i:Qy@!/ikOqhe*^x%EOYAstrometryrp08$F51
     P11DBXX  C2023 03 18.+redacted;E,5hF@A@BPdgY[UDemvE8tquj[3HjsGP.6P)clickF51
     P11DBXX  C2023 03 18Wq%b5lAJ!@io4-s.YnRn[!8THh=8?Fpj%2%q-)rMrAD-)=;beH0FF51
     P11DBXX KC2023 03 18IIUK7rd0r4Tw3H-t55YBEP7a;_q;hereb@p42BRforv:fQk@9M[4L01
     P11DBXX KC2023 03 18p*OlO%)jtCa6+\`sn)%DwEuie:\9OJUET_7]dtM9=5)#qiv?LVcJL01
     P11DBXX KC2023 03 18!9mg-)Z\Ti[.NLF9Fs,b5A3XqR+Mp/OcJ+P`9?AnGHamAG1^\Rq:L01
     P11DBXX KC2023 03 18$$EQN.kdv;J!cexplanationFvenC3/6/VG8.,2v,d$:Do%u0O!1L01
     P11DBXX KC2023 03 18l!-Xo*E$A.4wU+t3J?\OYD8U/gWt4X\l(f7`au^U!j)hbT-D]A$[L01
     P11DBXX 1C2023 03 18.95915 12 14 11.59 +42 11 06.4    ~3J17 21.0 VXNEOCP033
     P11DBXX 1C2023 03 18.96059 12 14 11.23 +42 11 04.0    ~3J17 21.1 VXNEOCP033
     P11DBXX KC2023 03 20.38071212 07 49.213+41 28 53.36   ~3K9b 20.75GVNEOCPI52
     P11DBXX KC2023 03 20.38198712 07 48.860+41 28 50.81   ~3K9b 20.60GVNEOCPI52
     P11DBXX KC2023 03 20.38326112 07 48.529+41 28 48.32   ~3K9b 20.62GVNEOCPI52
     P11DBXX KC2023 03 20.38453512 07 48.169+41 28 46.06   ~3K9b 20.63GVNEOCPI52
     P11DBXX KC2023 03 21.03320812 04 53.04 +41 08 00.7    ~3L1M 20.7 GXNEOCPI93
     P11DBXX KC2023 03 21.03709912 04 51.98 +41 07 53.1    ~3L1M 20.6 GXNEOCPI93
     P11DBXX KC2023 03 21.04098712 04 50.90 +41 07 45.6    ~3L1M 20.0 GXNEOCPI93

Station data:
(033) Karl Schwarzschild Observatory, Tautenburg  (N50.980137 E11.711240)
   Germany.  Observers S. Melnikov, C. Hoegner, B. Stecklum. Measurer B.
   Stecklum. 1.34-m f/3 Schmidt + CCD.
(F51) Pan-STARRS 1, Haleakala  (N20.707234 W156.255910)  US/Hawaii.
   Observers J. Bulger, T. Lowe, A. Schultz, M. Willman. Measurers K.
   Chambers, S. Chastel, T. de Boer, L. Denneau, J. Fairlamb, H. Flewelling,
   M. Huber, C.-C. Lin, E. Magnier, Y. Ramanjooloo, R. Wainscoat, R. Weryk.
   1.8-m Ritchey-Chrétien + CCD.
(I52) Steward Observatory, Mt. Lemmon Station  (N32.442544 W110.788920)
   US/Arizona.  Observers T. A. Pruyne, B. M. Africano, E. J. Christensen, G.
   A. Farneth, D. C. Fuls, A. R. Gibbs, A. D. Grauer, H. Gröller, J. A.
   Johnson, R. A. Kowalski, S. M. Larson, G. J. Leonard, D. Rankin, R. L.
   Seaman, F. C. Shelly, K. W. Wierzchoś. 1.0-m reflector + CCD.
(I93) St Pardon de Conques  (N44.558708 W0.203000)  France.  Observers F.
   Losse, W. D'Anna. Measurer F. Losse. 0.40-m f/3.7 reflector + CCD.
(L01) Višnjan Observatory, Tičan  (N45.290897 E13.749300)  Croatia.
   Observers K. Korlević, D. Pujagic, V. Dobos. Measurers D. Pujagic, K.
   Korlević. 1.0-m f/2.9 reflector + CCD.

Orbital elements:  P11DBXX
   Perihelion 2023 May 27.35775 +/- 0.559 TT =  8:35:10 (JD 2460091.85775)
Epoch 2023 Mar 21.0 TT = JDT 2460024.5   Earth MOID: 0.3752      AutoNEOCP
M 343.11023026 +/- 1.1              (J2000 ecliptic)
n   0.25074722 +/- 0.0155           Peri.  206.77027 +/- 0.39
a   2.49064576 +/- 0.103            Node    10.23293 +/- 0.25
e   0.4626320 +/- 0.0198            Incl.   41.89371 +/- 0.6
P   3.93                   H 19.93  G  0.15   U  9.9
q 1.33839325 +/- 0.00604    Q 3.64289827 +/- 0.199
From 17 observations 2023 Mar. 18-21; mean residual 0".14
Residuals in arcseconds: 
230318 F51  .14+  .11+    230318 L01  .29-  .01+    230320 I52  .09+  .14-    
230318 F51  .08-  .14-    230318 L01  .20-  .30+    230320 I52  .00   .02+    
230318 F51  .05-  .04-    230318 033  .03+  .04+    230321 I93  .07-  .08-    
230318 L01  .03+  .01-    230318 033  .38+  .07+    230321 I93  .12+  .04-    
230318 L01  .06-  .04-    230320 I52  .14-  .08+    230321 I93  .07+  .10+    
230318 L01  .14-  .33+    230320 I52  .14-  .06-    

Ephemerides (geocentric):
Date (UTC) HH   RA             Dec           delta  r     elong  mag " sig PA
---- --------  ------------   ------------  ------ ------ -----  --- --------
2023 03 21 01  12 04 50.894   +41 07 45.17  .59345 1.4950 138.9 20.9 .145 119
2023 03 21 02  12 04 39.607   +41 06 23.47  .59320 1.4948 138.9 20.9 .164 121
2023 03 21 03  12 04 28.318   +41 05 01.55  .59295 1.4947 138.9 20.9 .185 122
2023 03 21 04  12 04 17.027   +41 03 39.41  .59270 1.4945 138.9 20.9 .206 123
2023 03 21 05  12 04 05.734   +41 02 17.05  .59245 1.4943 139.0 20.9 .228 124
2023 03 21 06  12 03 54.439   +41 00 54.46  .59220 1.4941 139.0 20.9 .250 125
2023 03 21 07  12 03 43.142   +40 59 31.65  .59195 1.4940 139.0 20.9 .274 126
2023 03 21 08  12 03 31.844   +40 58 08.62  .59171 1.4938 139.0 20.9 .298 127
2023 03 21 09  12 03 20.544   +40 56 45.37  .59146 1.4936 139.0 20.9 .323 127
2023 03 21 10  12 03 09.242   +40 55 21.89  .59121 1.4934 139.0 20.9 .348 128
2023 03 21 11  12 02 57.939   +40 53 58.19  .59097 1.4933 139.0 20.9 .374 128
2023 03 21 12  12 02 46.634   +40 52 34.27  .59072 1.4931 139.0 20.9 .401 128
2023 03 21 13  12 02 35.328   +40 51 10.13  .59047 1.4929 139.0 20.9 .429 129
2023 03 21 14  12 02 24.020   +40 49 45.76  .59023 1.4927 139.0 20.9 .457 129
2023 03 21 15  12 02 12.710   +40 48 21.17  .58998 1.4926 139.0 20.9 .486 129
2023 03 21 16  12 02 01.400   +40 46 56.35  .58974 1.4924 139.0 20.9 .516 129
2023 03 21 17  12 01 50.088   +40 45 31.31  .58950 1.4922 139.0 20.9 .546 130
2023 03 21 18  12 01 38.774   +40 44 06.05  .58925 1.4920 139.1 20.9 .577 130
2023 03 21 19  12 01 27.460   +40 42 40.57  .58901 1.4918 139.1 20.9 .609 130
2023 03 21 20  12 01 16.144   +40 41 14.86  .58877 1.4917 139.1 20.9 .641 130
2023 03 21 21  12 01 04.827   +40 39 48.93  .58853 1.4915 139.1 20.9 .675 130
2023 03 21 22  12 00 53.509   +40 38 22.77  .58829 1.4913 139.1 20.9 .708 130
2023 03 21 23  12 00 42.190   +40 36 56.40  .58805 1.4912 139.1 20.9 .743 130
2023 03 22 00  12 00 30.870   +40 35 29.79  .58781 1.4910 139.1 20.9 .778 130
2023 03 22 01  12 00 19.549   +40 34 02.96  .58757 1.4908 139.1 20.9 .814 130
2023 03 22 02  12 00 08.227   +40 32 35.91  .58733 1.4906 139.1 20.9 .851 130
2023 03 22 03  11 59 56.904   +40 31 08.64  .58709 1.4905 139.1 20.9 .889 130
2023 03 22 04  11 59 45.581   +40 29 41.14  .58685 1.4903 139.1 20.9 .927 130
2023 03 22 05  11 59 34.256   +40 28 13.42  .58661 1.4901 139.1 20.9 .965 130
2023 03 22 06  11 59 22.931   +40 26 45.47  .58638 1.4899 139.1 20.9 1.01 130
2023 03 22 07  11 59 11.606   +40 25 17.30  .58614 1.4898 139.1 20.9 1.05 130
2023 03 22 08  11 59 00.279   +40 23 48.90  .58591 1.4896 139.1 20.9 1.09 130
2023 03 22 09  11 58 48.953   +40 22 20.28  .58567 1.4894 139.1 20.9 1.13 130
2023 03 22 10  11 58 37.625   +40 20 51.44  .58544 1.4892 139.2 20.9 1.17 130
2023 03 22 11  11 58 26.297   +40 19 22.37  .58520 1.4891 139.2 20.9 1.21 130
2023 03 22 12  11 58 14.969   +40 17 53.07  .58497 1.4889 139.2 20.9 1.26 130
2023 03 22 13  11 58 03.640   +40 16 23.55  .58474 1.4887 139.2 20.9 1.30 130
2023 03 22 14  11 57 52.311   +40 14 53.81  .58450 1.4885 139.2 20.9 1.35 130
2023 03 22 15  11 57 40.982   +40 13 23.84  .58427 1.4884 139.2 20.9 1.39 130
2023 03 22 16  11 57 29.653   +40 11 53.65  .58404 1.4882 139.2 20.9 1.44 130
2023 03 22 17  11 57 18.323   +40 10 23.23  .58381 1.4880 139.2 20.9 1.49 130
2023 03 22 18  11 57 06.993   +40 08 52.59  .58358 1.4878 139.2 20.9 1.54 130
2023 03 22 19  11 56 55.663   +40 07 21.72  .58335 1.4877 139.2 20.9 1.58 130
2023 03 22 20  11 56 44.333   +40 05 50.63  .58312 1.4875 139.2 20.9 1.63 130
2023 03 22 21  11 56 33.003   +40 04 19.31  .58289 1.4873 139.2 20.8 1.69 130
2023 03 22 22  11 56 21.673   +40 02 47.77  .58266 1.4872 139.2 20.8 1.74 130
2023 03 22 23  11 56 10.344   +40 01 16.01  .58243 1.4870 139.2 20.8 1.79 130
2023 03 23 00  11 55 59.014   +39 59 44.01  .58221 1.4868 139.2 20.8 1.84 130